{"data":{"norad_id":60730,"intl_designator":"2024-152L","name":"STARLINK-11255 [DTC]","alt_names":[],"object_type":"PAYLOAD","status":"ACTIVE","operator":null,"country":"US","launch_date":"2024-08-28","launch_site_code":"AFETR","launch_vehicle":null,"mission":null,"orbit_class":"UNKNOWN","rcs_meters":null,"size_class":null,"mass_kg":null,"dimensions":null,"purposes":["comms"],"wikipedia_slug":null,"has_3d_model":false,"image_url":null,"decayed_at":null,"tle_current":{"epoch":"2026-09-21T07:33:22.773024Z","epoch_age_seconds":117831,"freshness":"FRESH","line1":"1 60730U 24152L   26264.31484691 -.00000020  00000+0  46851-5 0  9997","line2":"2 60730  53.1607 231.6408 0000304 111.3883 248.7168 15.69705997119573","mean_motion":15.69705997,"eccentricity":3.04e-5,"inclination_deg":53.1607,"raan_deg":231.6408,"arg_perigee_deg":111.3883,"mean_anomaly_deg":248.7168,"bstar":4.6851e-6,"rev_number":11957,"period_min":91.736924159818,"perigee_km":359.53337409161,"apogee_km":359.9430369041,"semimajor_km":6737.8752054979,"source":"CELESTRAK","updated_at":"2026-09-22T09:00:49.279260Z"}}}